STARLINK-31905, 59896

Orbit data source: Space-Track

STARLINK-31905, 59896 is a payload satellite owned by SpaceX/Seattle (US) in LEO that was launched on Tue, 28 May 2024 UTC via an FALCON 9 launch vehicle from the Air Force Eastern Test Range (AFETR). Payload-class satellites include a variety of spacecraft equipped with specific instruments for various scientific and technological missions. These include communications satellites like Starlink; space stations such as the ISS; scientific satellites like the Hubble; Earth observation satellites from companies like Planet Labs, Umbra, and HawkEye 360; GPS; miniature CubeSats for education and research; and military/defense satellites.

Loading next visibility...
Identifier
59896, 2024-100M
Orbit
LEO
Country
Flag of USUS
Related business
Manufacturer
SpaceX/Seattle
Mission
Operational Commercial Communications
Bus & Motor
STARLINK V2M, Unknown motor
Mass
730 kg wet, ~700 kg dry
Launch date (UTC)
2024-05-28 (2 years ago)
Launch vehicle
FALCON 9
Launch site
Air Force Eastern Test Range (AFETR)
Object type
Payload
Rocket body
Debris
Shape & HBR
Box + 2 Pan, 17.7 m
Radar Cross Section
33.884 m², Large (>1 m²)

Expand to show TLE details & history
Last TLE update: 7 hours ago

TLE from 7 hours ago
0 STARLINK-31905
1 59896U 24100M   26126.41278036 -.00000046  00000-0  78627-5 0  9998
2 59896  43.0021 156.0551 0001251 269.1628  90.9080 15.27585682110024
Epoch: 2026-05-06T09:54Z
TLE epoch observation values (Epoch: 2026-05-06T09:54:24.223Z)
Latitude
-0.00002°
Longitude
143.18051°
Altitude
482.821 km
Speed
7.626 km/s
True Right ascension
10h 24m 13s
True Declination
0° 00' 00"
Sunlit
Object was in partial shadow at epoch
Visualization orbit readout
Latitude
Unknown
Longitude
Unknown
Altitude
Unknown
Speed
Unknown
Apparent Right ascension
Unknown
Apparent Declination
Unknown
Sunlit
N/A
Visualization observer readout
Local Sidereal Time
01:09:13
Azimuth
Unknown
Elevation
Unknown
Doppler factor
Unknown
Orbital elements
Apogee altitude
485.835 km
Perigee altitude
484.118 km
Semi-major axis
6,863.114 km
Eccentricity
0.00013
Inclination
43.0021°
RAAN
156.0551°
Arg. of periapsis
269.1628°
True anomaly
90.92233°
Mean anomaly
90.908°
Eccentric anomaly
90.91517°
Mean motion
3.81734 °/min
Orbital period
94.31 mins
BSTAR
0.0000078627
Loading maneuver chart data...
Computing Atmospheric mass density...
Loading historical data...
Loading historical data...
Loading historical data...
Loading historical data...
Loading historical data...
Loading historical data...
Loading historical data...

Documentation

Showing up to 5 results
|